Location: Edinburgh
(55.9500°N, 3.1600°W)
Time: 16:12:11
(UTC+01:00)

Envisat - Pass Details

Date: 18 February 2019
Orbit: 764 x 766 km, 98.1° (Epoch: 14 October)

Event Time Altitude Azimuth Distance (km) Brightness Sun altitude
Rises 20:08:10 0° 210° (SSW) 3,224 6.4 -23.6°
Reaches altitude 10° 20:11:07 10° 228° (SW) 2,303 5.8 -24.0°
Maximum altitude 20:14:43 19° 273° (W) 1,753 5.7 -24.5°
Drops below altitude 10° 20:18:21 10° 319° (NW) 2,314 6.2 -25.0°
Sets 20:21:19 0° 337° (NNW) 3,246 6.8 -25.4°
